Location: Mohawk View
(42.7837°N, 73.7885°W)
Time: 07:52:54
(UTC+00:00)

Meteor 1-24 Rocket - Pass Details

Date: 30 October 2021
Orbit: 790 x 927 km, 81.3° (Epoch: 27 November)

Event Time Altitude Azimuth Distance (km) Brightness Sun altitude
Rises 08:14:08 0° 138° (SE) 3,301 7.1 -35.7°
Reaches altitude 10° 08:17:32 10° 115° (ESE) 2,396 6.6 -35.1°
Maximum altitude 08:20:25 15° 83° (E) 2,102 6.5 -34.6°
Drops below altitude 10° 08:23:21 10° 50° (NE) 2,447 6.8 -34.1°
Sets 08:26:52 0° 28° (NNE) 3,417 7.4 -33.4°
